STARLINK-1217 (45226 NORAD) Tracking and Keplerian Element Data

This shows tracking and keplerian element data for the satellite.

Feedback or suggestion? Click here.




ElementValue
Catalog45226
NameSTARLINK-1217
Epoch Orbit748
Epoch Day94.25001157
Epoch Year2020
RAAN42.8485
Inclination52.9973
Eccentricity0.0001524
Argument of Perigee24.87
Mean Anonmoly107.8148
Mean Motion15.62752523
Decay Rate0.00036437
L11 45226U 20012BA 20094.25001157 .00036437 00000-0 40198-3 0 9998
L22 45226 52.9973 42.8485 0001524 24.8700 107.8148 15.62752523 7486

Live tracking and technical data element details for STARLINK-1217 (NORAD 45226). STARLINK-1217 can be tracked NOW for your location showing map with azimuth and elevation plus other details from your city location.

Track the satellite on the map from your city or location and see movement details for azimuth, elevation, latitude, longitude, range, height, and movement on the map or in text.







IsCatalogInMostPopularTable: catalog: 45226, numindb: 6
Update: records affected: 1



GetName: 45226 STARLINK-1217

Hit Count: updated at: Tue, 07 Apr 2020 16:33:13 GMT